Weather Roundup
Issued by NWS

Home | Current Version | Previous Version | Graphics & Text | Print | Product List | Glossary Off
Versions: 1 2 3 4 5 6 7 8 9 10 11 12 13 14 15 16 17 18 19 20 21 22 23 24 25 26 27 28 29 30 31 32 33 34 35 36 37 38 39 40 41 42 43 44 45 46 47 48 49 50

000
NZUS93 KARX 280959
HRRWXR

CURRENT HOURLY OBSERVATIONS ACROSS
MUCH OF THE UPPER MISSISSIPPI VALLEY
NATIONAL WEATHER SERVICE LA CROSSE WI
500 AM CDT SAT MAR 28 2015


...SOUTHEAST MINNESOTA...


CITY           SKY/WX    TMP DP  RH WIND       PRES   REMARKS
ROCHESTER      PTCLDY    16   9  74 SE6       30.18R WCI   7
ROCHESTER/MAYO FAIR      21  13  72 E3        30.19R
WINONA         CLOUDY    21  18  86 NW3       30.23R
AUSTIN         CLOUDY    19  14  79 CALM      30.17S
ALBERT LEA     CLOUDY    25  16  68 SE5       30.17R WCI  19
DODGE CENTER   MOCLDY    19  10  68 SE3       30.17R
PRESTON        MOCLDY    18   9  68 CALM      30.19R
OWATONNA       CLOUDY    21  12  68 CALM      30.17R
FARIBAULT      CLOUDY    21  10  63 CALM      30.19R
$$

...ELSEWHERE IN MINNESOTA...


CITY           SKY/WX    TMP DP  RH WIND       PRES   REMARKS
MINNEAPOLIS    MOCLDY    22   8  55 SE5       30.20S WCI  16
INTNL FALLS    CLEAR     13   7  77 SE5       30.13R WCI   5
DULUTH         CLEAR     18  12  77 SE3       30.15R
RED WING       CLEAR     18  12  79 CALM      30.21S
REDWOOD FALLS  CLOUDY    30  26  85 E3        30.15R
MANKATO        CLOUDY    25  14  63 SE7       30.17S WCI  17
WORTHINGTON    CLOUDY    27  23  86 SE7       30.12R WCI  19
FAIRMONT       CLOUDY    27  19  74 SE6       30.14S WCI  20
$$

...SOUTHWEST WISCONSIN...


CITY           SKY/WX    TMP DP  RH WIND       PRES   REMARKS
LA CROSSE      PTCLDY    22  14  71 E5        30.23R WCI  16
PRAIRIE DU CHI FAIR      17  10  76 CALM      30.23R
BOSCOBEL       CLEAR     15  11  83 CALM      30.24R
LONE ROCK      NOT AVBL
PLATTEVILLE    PTCLDY    22  15  74 E6        30.20S WCI  15
FORT MC COY    PTCLDY    12   9  87 CALM      30.22S
VIROQUA        FAIR      18  10  70 E7        30.18S WCI   9
WIS DELLS      NOT AVBL
$$

...ELSEWHERE IN WISCONSIN...


CITY           SKY/WX    TMP DP  RH WIND       PRES   REMARKS
MILWAUKEE      PTCLDY    20  11  68 NW6       30.25R WCI  12
MADISON        CLEAR     16  10  77 CALM      30.24R
GREEN BAY      CLEAR     19  12  74 CALM      30.26R
EAU CLAIRE     CLEAR     16  11  80 NE3       30.20R
BLACK RVR FLS  FAIR       9   6  87 CALM      30.21S
MEDFORD        CLEAR     13  10  90 S3        30.17S
WAUSAU         CLEAR     15   8  73 E3        30.19S
WIS RAPIDS     CLEAR     10   6  84 CALM      30.23R
MARSHFIELD     CLEAR     18  10  71 CALM      30.20R
RICE LAKE      CLEAR     18  15  86 CALM      30.20S
$$

...NORTHEAST IOWA...


CITY           SKY/WX    TMP DP  RH WIND       PRES   REMARKS
DECORAH        MOCLDY    16  10  79 CALM      30.19R
MASON CITY     MOCLDY    23  15  71 SE7       30.18S WCI  15
CHARLES CITY   MOCLDY    21  16  79 E6        30.19S WCI  14
OELWEIN        PTCLDY    23  14  68 SE6       30.20R WCI  16
$$

...ELSEWHERE IN IOWA...


CITY           SKY/WX    TMP DP  RH WIND       PRES   REMARKS
DES MOINES     CLOUDY    33  12  41 E5        30.17R WCI  29
IOWA CITY      PTCLDY    22  14  71 CALM      30.24R
FORT DODGE     CLOUDY    28  18  64 SE5       30.16S WCI  23
$$

...NORTHERN ILLINOIS...


CITY           SKY/WX    TMP DP  RH WIND       PRES   REMARKS
CHICAGO-OHARE  CLEAR     21  13  71 N5        30.23R WCI  15
CHICAGO-MIDWAY CLEAR     22  13  68 NW3       30.24R
MOLINE         CLEAR     20  13  74 E7        30.24R WCI  11
ROCKFORD       CLEAR     17  11  77 CALM      30.26R
PEORIA         PTCLDY    23  13  65 E6        30.24R WCI  16
$$

NOTE: "FAIR" INDICATES FEW OR NO CLOUDS BELOW 12,000 FEET WITH NO
SIGNIFICANT WEATHER AND/OR OBSTRUCTIONS TO VISIBILITY. WIND
SPEEDS ARE IN MILES-PER-HOUR.



USA.gov is the U.S. government's official web portal to all federal, state and local government web resources and services.